This demonstration page uses our WeatherBlox Daily Observations layout. Learn more.

Left ArrowRight Arrow

39.51506, -84.39828

Hourly Observations for May 16, 2017

Temp ( °F °C ) Dew Point ( °F °C ) Humidity (%) Winds ( mph kmh ) Pressure ( in mb ) Visibility ( mi km ) Precip ( " mm )
12:15 am 00:15 Clear 69 20.8 52 11 54 54 Calm 29.97 1015 10 16 0.00 0.00
12:35 am 00:35 Clear 64 17.6 54 12.3 71 71 Calm 29.97 1015 10 16 0.00 0.00
12:55 am 00:55 Clear 62 16.6 53 11.6 73 73 Calm 29.97 1015 10 16 0.00 0.00
1:15 am 01:15 Clear 60 15.8 52 11.2 74 74 Calm 29.97 1015 10 16 0.00 0.00
1:35 am 01:35 Clear 61 16 53 11.7 76 76 Calm 29.97 1015 10 16 0.00 0.00
1:55 am 01:55 Clear 61 15.9 53 11.9 77 77 Calm 29.97 1015 10 16 0.00 0.00
2:15 am 02:15 Clear 61 16.2 51 10.8 71 71 Calm 29.97 1015 10 16 0.00 0.00
2:35 am 02:35 Clear 63 17.4 51 10.5 64 64 Calm 29.97 1015 10 16 0.00 0.00
2:55 am 02:55 Clear 61 16.3 51 10.3 68 68 Calm 29.97 1015 10 16 0.00 0.00
3:15 am 03:15 Clear 62 16.6 50 10.2 66 66 Calm 29.94 1014 7 11 0.00 0.00
3:35 am 03:35 Clear 61 16 51 10.8 71 71 Calm 29.97 1015 10 16 0.00 0.00
3:55 am 03:55 Clear 60 15.8 52 11 73 73 Calm 29.94 1014 10 16 0.00 0.00
4:15 am 04:15 Clear 60 15.3 52 11.1 76 76 Calm 29.94 1014 10 16 0.00 0.00
4:35 am 04:35 Clear 60 15.3 53 11.5 78 78 Calm 29.97 1015 10 16 0.00 0.00
4:55 am 04:55 Clear 57 13.8 51 10.3 80 80 Calm 30.00 1016 10 16 0.00 0.00
5:15 am 05:15 Clear 57 13.8 51 10.5 81 81 Calm 29.97 1015 10 16 0.00 0.00
5:35 am 05:35 Clear 57 13.8 51 10.6 81 81 NNE 3 6 30.00 1016 10 16 0.00 0.00
5:55 am 05:55 Clear 57 13.8 51 10.7 82 82 Calm 30.00 1016 10 16 0.00 0.00
6:15 am 06:15 Clear 57 13.8 51 10.6 81 81 Calm 30.00 1016 10 16 0.00 0.00
6:35 am 06:35 Sunny 57 13.8 51 10.6 81 81 Calm 30.00 1016 10 16 0.00 0.00
6:55 am 06:55 Sunny 57 13.8 51 10.7 82 82 Calm 30.00 1016 10 16 0.00 0.00
7:15 am 07:15 Sunny 57 13.8 52 11 83 83 Calm 30.03 1017 10 16 0.00 0.00
7:35 am 07:35 Sunny 60 15.3 53 11.8 80 80 Calm 29.97 1015 10 16 0.00 0.00
7:55 am 07:55 Sunny 62 16.8 55 12.7 77 77 Calm 29.97 1015 10 16 0.00 0.00
8:15 am 08:15 Sunny 69 20.8 57 13.8 64 64 S 3 6 29.97 1015 10 16 0.00 0.00
8:35 am 08:35 Sunny 69 20.8 57 14 65 65 SW 5 7 29.97 1015 10 16 0.00 0.00
8:55 am 08:55 Sunny 69 20.8 56 13.6 64 64 Calm 30.00 1016 10 16 0.00 0.00
9:15 am 09:15 Sunny 72 22 57 14 61 61 S 3 6 30.00 1016 10 16 0.00 0.00
9:35 am 09:35 Sunny 74 23.6 59 15.1 59 59 S 3 6 30.00 1016 10 16 0.00 0.00
9:55 am 09:55 Sunny 74 23.6 57 14 55 55 SSW 3 6 30.00 1016 10 16 0.00 0.00
10:15 am 10:15 Sunny 77 24.8 58 14.5 53 53 SW 6 9 30.00 1016 10 16 0.00 0.00
10:35 am 10:35 Sunny 77 25.1 58 14.2 51 51 SW 5 7 29.97 1015 10 16 0.00 0.00
10:55 am 10:55 Sunny 77 25.1 58 14.3 51 51 SSW 5 7 29.97 1015 10 16 0.00 0.00
11:15 am 11:15 Sunny 80 26.5 58 14.7 48 48 SSW 8 13 29.97 1015 10 16 0.00 0.00
11:35 am 11:35 Sunny 80 26.5 57 13.7 45 45 WSW 12 19 29.97 1015 10 16 0.00 0.00
11:55 am 11:55 Sunny 81 27 56 13.5 43 43 SW 12 19 29.97 1015 10 16 0.00 0.00
12:15 pm 12:15 Partly Cloudy 80 26.5 56 13.5 45 45 WSW 6 9 29.97 1015 10 16 0.00 0.00
12:35 pm 12:35 Partly Cloudy 81 27.2 58 14.5 46 46 SW 10 17 29.97 1015 10 16 0.00 0.00
12:55 pm 12:55 Sunny 82 27.5 58 14.4 45 45 S 6 9 29.97 1015 10 16 0.00 0.00
1:15 pm 13:15 Partly Cloudy 82 28 58 14.2 43 43 S 6 9 29.94 1014 10 16 0.00 0.00
1:35 pm 13:35 Partly Cloudy 83 28.1 57 14.1 42 42 SW 6 9 29.94 1014 10 16 0.00 0.00
1:55 pm 13:55 Sunny 83 28.5 53 11.8 36 36 WSW 8 13 29.94 1014 10 16 0.00 0.00
2:15 pm 14:15 Sunny 84 28.7 55 13 38 38 S 10 17 29.91 1013 10 16 0.00 0.00
2:35 pm 14:35 Sunny 84 29.1 55 12.7 36 36 S 13 20 29.91 1013 10 16 0.00 0.00
2:55 pm 14:55 Sunny 85 29.7 56 13.6 37 37 SSW 14 22 29.91 1013 10 16 0.00 0.00
3:15 pm 15:15 Sunny 84 29.1 52 11.2 33 33 SW 12 19 29.91 1013 10 16 0.00 0.00
3:35 pm 15:35 Sunny 86 30.1 52 10.9 30 30 S 16 26 29.91 1013 10 16 0.00 0.00
3:55 pm 15:55 Sunny 87 30.7 55 12.5 33 33 SSW 13 20 29.88 1012 10 16 0.00 0.00
4:15 pm 16:15 Sunny 87 30.7 52 11.3 30 30 SSW 13 20 29.88 1012 10 16 0.00 0.00
4:35 pm 16:35 Sunny 87 30.7 51 10.7 29 29 SSW 14 22 29.88 1012 10 16 0.00 0.00
4:55 pm 16:55 Sunny 87 30.7 51 10.8 29 29 SW 13 20 29.88 1012 10 16 0.00 0.00
5:15 pm 17:15 Sunny 87 30.7 51 10.3 28 28 S 13 20 29.88 1012 10 16 0.00 0.00
5:35 pm 17:35 Sunny 87 30.7 50 9.9 28 28 SSW 13 20 29.85 1011 10 16 0.00 0.00
5:55 pm 17:55 Sunny 87 30.7 51 10.4 28 28 S 15 24 29.85 1011 10 16 0.00 0.00
6:10 pm 18:10 Sunny 85 29.3 50 10.1 30 30 S 15 24 29.85 1011 10 16 0.00 0.00
6:35 pm 18:35 Sunny 85 29.2 50 9.9 30 30 SSW 13 20 29.85 1011 10 16 0.00 0.00
6:55 pm 18:55 Sunny 84 28.7 51 10.5 32 32 SSW 12 19 29.85 1011 10 16 0.00 0.00
7:15 pm 19:15 Sunny 83 28.2 52 10.9 34 34 SSW 10 17 29.85 1011 10 16 0.00 0.00
7:35 pm 19:35 Sunny 82 28 51 10.5 34 34 SSW 12 19 29.85 1011 10 16 0.00 0.00
7:55 pm 19:55 Sunny 82 27.8 52 11.2 36 36 S 13 20 29.85 1011 10 16 0.00 0.00
8:15 pm 20:15 Sunny 81 27.2 52 11.3 37 37 S 12 19 29.85 1011 10 16 0.00 0.00
8:35 pm 20:35 Sunny 81 27.2 51 10.7 36 36 SSW 12 19 29.85 1011 10 16 0.00 0.00
8:55 pm 20:55 Clear 81 27.1 52 11 37 37 SSW 9 15 29.85 1011 10 16 0.00 0.00
9:15 pm 21:15 Clear 77 25.1 55 12.6 46 46 SSW 8 13 29.88 1012 10 16 0.00 0.00
9:35 pm 21:35 Clear 77 25.1 54 12.2 45 45 S 8 13 29.88 1012 10 16 0.00 0.00
9:55 pm 21:55 Clear 76 24.3 56 13.4 51 51 SW 6 9 29.88 1012 10 16 0.00 0.00
10:15 pm 22:15 Clear 74 23.6 58 14.3 56 56 SSW 5 7 29.88 1012 10 16 0.00 0.00
10:35 pm 22:35 Clear 74 23.6 58 14.6 57 57 SSW 6 9 29.88 1012 10 16 0.00 0.00
10:55 pm 22:55 Clear 74 23.6 56 13.5 53 53 S 7 11 29.88 1012 10 16 0.00 0.00
11:15 pm 23:15 Clear 77 25.1 57 13.7 49 49 SSW 7 11 29.88 1012 10 16 0.00 0.00
11:35 pm 23:35 Clear 74 23.6 58 14.5 57 57 S 6 9 29.88 1012 10 16 0.00 0.00
11:55 pm 23:55 Clear 74 23.6 58 14.5 57 57 SSW 3 6 29.88 1012 10 16 0.00 0.00

Powered by AerisWeather